Location: L�gaud
(45.7115°N, 1.7775°E)
Time: 17:14:44
(UTC+00:00)

Cosmos 1844 Rocket - Pass Details

Date: 03 March 2021
Orbit: 826 x 843 km, 71.0° (Epoch: 11 April)

Event Time Altitude Azimuth Distance (km) Brightness Sun altitude
Rises 18:21:49 0° 338° (NNW) 3,376 6.1 -7.6°
Reaches altitude 10° 18:24:24 10° 346° (NNW) 2,438 5.3 -8.1°
Maximum altitude 18:29:40 41° 56° (NE) 1,191 3.1 -9.0°
Drops below altitude 10° 18:34:53 10° 126° (SE) 2,426 4.6 -9.9°
Enters shadow 18:36:04 - 130° (SE) 2,849 5.0 -10.1°
